Kimball, NE

1:42 AM MDT on June 28, 2017 (GMT -0600)
Kimball Municipal-Arraj

Weather History for KIBM - December, 2012

Change the Weather History Date:

Saturday, December 8, 2012

  Actual Average (KSNY) Record (KSNY)
Temperature  
Mean Temperature 30 °F -  
Max Temperature 43 °F 38 °F 63 °F (2006)
Min Temperature 18 °F 13 °F -17 °F (1972)
Degree Days  
Heating Degree Days 34    
Moisture  
Dew Point 19 °F    
Average Humidity 62    
Maximum Humidity 85    
Minimum Humidity 30    
Precipitation  
Precipitation 0.00 in - - ()
Sea Level Pressure  
Sea Level Pressure 29.74 in    
Wind  
Wind Speed 15 mph (West)    
Max Wind Speed 41 mph    
Max Gust Speed 53 mph    
Visibility 10 miles    
Events Rain    
Averages and records for this station are not official NWS values.
T = Trace of Precipitation, MM = Missing Value Source: NWS Daily Summary

Daily Weather History Graph

Daily Weather History Graph

Search for Another Location

Airport or City:

Trip Planner

Search our weather history database for the weather conditions in past years. The results will help you decide how hot, cold, wet, or windy it might be!

Date:

Astronomy

Dec. 08, 2012 Rise Set
Actual Time 8:07 AM CST 5:25 PM CST
Civil Twilight 7:36 AM CST 5:56 PM CST
Nautical Twilight 7:02 AM CST 6:31 PM CST
Astronomical Twilight 6:28 AM CST 7:04 PM CST
Moon 2:32 AM CST (12/8) 1:59 PM CST (12/8)
Length of Visible Light 10h 19m
Length of Day
9h 17m
Waning Crescent, 28% of the Moon is Illuminated
Dec 8
Waning Crescent
Dec 13
New
Dec 19
First Quarter
Dec 28
Full
Jan 4
Last Quarter

Hourly Weather History & Observations

Time (CST) Temp. Windchill Dew Point Humidity Pressure Visibility Wind Dir Wind Speed Gust Speed Precip Events Conditions
12:15 AM 23.9 °F 16.8 °F 17.4 °F 76% 29.88 in 10.0 mi WSW 5.8 mph - N/A   Scattered Clouds
12:35 AM 25.0 °F 20.7 °F 18.5 °F 76% 29.87 in 10.0 mi SW 3.5 mph - N/A   Mostly Cloudy
12:55 AM 26.6 °F 19.1 °F 19.2 °F 74% 29.86 in 10.0 mi SSW 6.9 mph - N/A   Overcast
1:15 AM 27.3 °F 19.9 °F 19.0 °F 71% 29.85 in 10.0 mi South 6.9 mph - N/A   Overcast
1:35 AM 28.4 °F 21.2 °F 19.4 °F 69% 29.84 in 10.0 mi South 6.9 mph - N/A   Overcast
1:55 AM 28.9 °F 21.1 °F 19.8 °F 69% 29.83 in 10.0 mi South 8.1 mph - N/A   Overcast
2:15 AM 29.3 °F 23.2 °F 19.8 °F 68% 29.82 in 10.0 mi SSW 5.8 mph - N/A   Overcast
2:55 AM 28.9 °F 22.8 °F 19.4 °F 68% 29.82 in 10.0 mi SW 5.8 mph - N/A   Overcast
3:15 AM 27.5 °F 22.2 °F 19.2 °F 71% 29.81 in 10.0 mi WSW 4.6 mph - N/A   Mostly Cloudy
3:35 AM 26.4 °F 19.8 °F 18.5 °F 72% 29.81 in 10.0 mi SW 5.8 mph - N/A   Mostly Cloudy
3:55 AM 27.5 °F 21.1 °F 19.4 °F 72% 29.82 in 10.0 mi West 5.8 mph - N/A   Overcast
4:15 AM 28.0 °F 20.8 °F 21.9 °F 78% 29.80 in 10.0 mi WSW 6.9 mph - N/A   Mostly Cloudy
4:35 AM 28.0 °F 17.0 °F 24.1 °F 85% 29.78 in 10.0 mi SSW 13.8 mph - N/A   Clear
5:15 AM 30.0 °F 20.5 °F 25.7 °F 84% 29.76 in 10.0 mi SSW 11.5 mph - N/A   Scattered Clouds
5:35 AM 30.9 °F 19.1 °F 25.7 °F 81% 29.74 in 10.0 mi South 18.4 mph 21.9 mph N/A   Mostly Cloudy
5:55 AM 31.1 °F 19.7 °F 25.3 °F 79% 29.73 in 10.0 mi South 17.3 mph 24.2 mph N/A   Overcast
6:15 AM 32.0 °F 19.5 °F 24.3 °F 73% 29.72 in 10.0 mi South 21.9 mph 28.8 mph N/A   Mostly Cloudy
6:35 AM 32.5 °F 20.2 °F 21.9 °F 65% 29.72 in 10.0 mi South 21.9 mph 27.6 mph N/A   Mostly Cloudy
6:55 AM 32.2 °F 21.4 °F 21.2 °F 64% 29.72 in 10.0 mi South 16.1 mph 27.6 mph N/A   Overcast
7:15 AM 31.6 °F 20.4 °F 21.2 °F 65% 29.70 in 10.0 mi South 17.3 mph 24.2 mph N/A   Overcast
7:35 AM 30.6 °F 19.0 °F 21.0 °F 68% 29.70 in 10.0 mi South 17.3 mph 24.2 mph N/A   Mostly Cloudy
7:55 AM 30.2 °F 17.4 °F 20.8 °F 68% 29.70 in 10.0 mi South 20.7 mph - N/A   Mostly Cloudy
8:15 AM 29.8 °F 17.7 °F 21.0 °F 70% 29.69 in 10.0 mi South 18.4 mph 23.0 mph N/A   Overcast
8:35 AM 29.7 °F 20.7 °F 21.0 °F 70% 29.68 in 10.0 mi South 10.4 mph 17.3 mph N/A   Overcast
8:55 AM 30.2 °F 21.9 °F 21.0 °F 69% 29.69 in 10.0 mi SSW 9.2 mph - N/A   Mostly Cloudy
9:15 AM 31.1 °F 24.5 °F 21.2 °F 67% 29.69 in 10.0 mi SSE 6.9 mph - N/A   Overcast
9:35 AM 31.8 °F 27.3 °F 21.7 °F 66% 29.69 in 10.0 mi SSE 4.6 mph - N/A   Scattered Clouds
9:55 AM 33.3 °F 24.1 °F 21.6 °F 62% 29.68 in 10.0 mi SSW 12.7 mph - N/A   Scattered Clouds
10:15 AM 34.3 °F 24.6 °F 21.6 °F 60% 29.67 in 10.0 mi SSW 15.0 mph 19.6 mph N/A   Scattered Clouds
10:35 AM 37.4 °F 29.8 °F 21.6 °F 53% 29.67 in 10.0 mi SW 11.5 mph - N/A   Clear
10:55 AM 41.2 °F 32.7 °F 19.2 °F 41% 29.67 in 10.0 mi WSW 17.3 mph 23.0 mph N/A   Scattered Clouds
11:15 AM 42.6 °F 34.6 °F 18.7 °F 38% 29.68 in 10.0 mi WSW 17.3 mph - N/A   Scattered Clouds
11:35 AM 43.2 °F 35.0 °F 18.7 °F 38% 29.67 in 10.0 mi West 18.4 mph 21.9 mph N/A   Scattered Clouds
11:55 AM 34.5 °F 20.6 °F 28.8 °F 79% 29.70 in 1.5 mi WNW 32.2 mph 51.8 mph N/A Rain Rain
12:15 PM 34.7 °F 21.5 °F 27.1 °F 74% 29.69 in 10.0 mi WNW 28.8 mph 39.1 mph N/A   Overcast
12:35 PM 37.4 °F 25.0 °F 24.1 °F 59% 29.66 in 10.0 mi West 29.9 mph 47.2 mph N/A   Overcast
12:55 PM 39.2 °F 26.8 °F 20.8 °F 48% 29.65 in 10.0 mi WNW 33.4 mph 48.3 mph N/A   Overcast
1:15 PM 40.1 °F 28.8 °F 18.1 °F 41% 29.64 in 10.0 mi WNW 28.8 mph 44.9 mph N/A   Mostly Cloudy
1:35 PM 40.1 °F 28.2 °F 18.3 °F 42% 29.64 in 10.0 mi WNW 32.2 mph 44.9 mph N/A   Mostly Cloudy
1:55 PM 40.8 °F 27.9 °F 15.6 °F 36% 29.63 in 10.0 mi WNW 41.4 mph 52.9 mph N/A   Scattered Clouds
2:15 PM 42.6 °F 30.9 °F 12.6 °F 30% 29.62 in 10.0 mi WNW 38.0 mph 43.7 mph N/A   Scattered Clouds
2:35 PM 41.0 °F 29.1 °F 11.8 °F 30% 29.63 in 10.0 mi WNW 34.5 mph 49.5 mph N/A   Mostly Cloudy
2:55 PM 40.3 °F 29.5 °F 12.7 °F 33% 29.63 in 10.0 mi WNW 26.5 mph 42.6 mph N/A   Overcast
3:15 PM 39.2 °F 26.8 °F 14.7 °F 37% 29.64 in 10.0 mi West 33.4 mph 40.3 mph N/A   Overcast
3:35 PM 38.8 °F 27.8 °F 15.1 °F 38% 29.64 in 10.0 mi West 25.3 mph 35.7 mph N/A   Overcast
3:55 PM 38.5 °F 27.5 °F 16.7 °F 41% 29.64 in 10.0 mi West 24.2 mph 29.9 mph N/A   Overcast
4:15 PM 38.3 °F 26.8 °F 15.6 °F 40% 29.66 in 10.0 mi West 26.5 mph 32.2 mph N/A   Overcast
4:35 PM 37.9 °F 25.5 °F 12.4 °F 35% 29.66 in 10.0 mi WNW 31.1 mph 39.1 mph N/A   Overcast
4:55 PM 36.5 °F 23.7 °F 15.8 °F 43% 29.68 in 10.0 mi WNW 29.9 mph 46.0 mph N/A   Overcast
5:15 PM 35.6 °F 22.3 °F 16.0 °F 45% 29.68 in 10.0 mi WNW 31.1 mph 39.1 mph N/A   Overcast
5:35 PM 34.9 °F 20.5 °F 12.9 °F 40% 29.67 in 10.0 mi WNW 35.7 mph 42.6 mph N/A   Mostly Cloudy
5:55 PM 33.3 °F 19.1 °F 21.9 °F 63% 29.69 in 10.0 mi NW 31.1 mph 41.4 mph N/A   Scattered Clouds
6:15 PM 31.5 °F 16.9 °F 22.8 °F 70% 29.72 in 10.0 mi NW 29.9 mph 40.3 mph N/A   Mostly Cloudy
6:35 PM 28.9 °F 14.0 °F 22.6 °F 77% 29.73 in 10.0 mi NNW 27.6 mph 39.1 mph N/A   Mostly Cloudy
6:55 PM 27.7 °F 15.2 °F 19.9 °F 73% 29.75 in 10.0 mi NW 17.3 mph 24.2 mph N/A   Scattered Clouds
7:15 PM 27.1 °F 14.9 °F 20.3 °F 75% 29.76 in 10.0 mi NW 16.1 mph - N/A   Clear
7:35 PM 26.6 °F 14.3 °F 20.3 °F 77% 29.77 in 10.0 mi NW 16.1 mph 20.7 mph N/A   Clear
7:55 PM 26.2 °F 13.8 °F 21.0 °F 81% 29.77 in 10.0 mi NW 16.1 mph - N/A   Scattered Clouds
8:15 PM 26.6 °F 13.4 °F 19.9 °F 76% 29.78 in 10.0 mi NW 18.4 mph 26.5 mph N/A   Scattered Clouds
8:35 PM 27.5 °F 13.5 °F 16.9 °F 64% 29.79 in 10.0 mi WNW 21.9 mph 26.5 mph N/A   Clear
8:55 PM 27.9 °F 13.4 °F 15.4 °F 60% 29.79 in 10.0 mi WNW 24.2 mph 32.2 mph N/A   Clear
9:15 PM 27.0 °F 11.9 °F 15.4 °F 62% 29.79 in 10.0 mi NW 25.3 mph 32.2 mph N/A   Clear
9:35 PM 26.6 °F 11.7 °F 12.0 °F 54% 29.81 in 10.0 mi NW 24.2 mph 32.2 mph N/A   Clear
9:55 PM 25.5 °F 8.8 °F 10.2 °F 52% 29.82 in 10.0 mi NW 29.9 mph 42.6 mph N/A   Clear
10:15 PM 23.4 °F 8.1 °F 13.1 °F 65% 29.84 in 10.0 mi NW 21.9 mph 31.1 mph N/A   Clear
10:35 PM 21.0 °F 5.4 °F 14.0 °F 74% 29.85 in 10.0 mi NW 20.7 mph 34.5 mph N/A   Clear
10:55 PM 19.4 °F 1.4 °F 12.7 °F 75% 29.85 in 10.0 mi NW 26.5 mph 32.2 mph N/A   Clear
11:15 PM 19.0 °F 1.6 °F 11.3 °F 72% 29.84 in 10.0 mi NW 24.2 mph 39.1 mph N/A   Clear
11:35 PM 18.9 °F 1.4 °F 11.5 °F 73% 29.84 in 10.0 mi NNW 24.2 mph 28.8 mph N/A   Clear
11:55 PM 18.5 °F 4.3 °F 11.8 °F 75% 29.87 in 10.0 mi NW 15.0 mph 28.8 mph N/A   Clear